Location: Bremen
(53.0793°N, 8.8017°E)
Time: 23:30:29
(UTC+02:00)

Vanguard 2 Rocket - Pass Details

Date: 22 April 2024
Orbit: 556 x 3304 km, 32.9° (Epoch: 20 May)

Event Time Altitude Azimuth Distance (km) Brightness Sun altitude
Rises 21:39:56 0° 214° (SW) 5,896 11.0 -8.9°
Reaches altitude 10° 21:44:11 10° 204° (SSW) 5,253 10.6 -9.5°
Maximum altitude 21:57:16 30° 152° (SSE) 4,584 9.9 -11.0°
Drops below altitude 10° 22:12:41 10° 102° (ESE) 6,239 10.6 -12.8°
Sets 22:18:20 0° 93° (E) 7,144 11.0 -13.4°
